Location: Newark
(45.6439°N, 0.5436°E)
Time: 22:55:26
(UTC+00:00)

N. Korean satellite - Visible Passes

Search period start: 22 November 2019 00:00
Search period end: 02 December 2019 00:00
Orbit: 456 x 506 km, 97.2° (Epoch: 22 November)

Date Brightness Start Highest point End Pass type
(mag) Time Alt. Az. Time Alt. Az. Time Alt. Az.
22 Nov 9.9 04:54:07 10° NE 04:56:22 15° E 04:58:36 10° SE visible
22 Nov 7.1 06:26:28 10° N 06:29:57 39° WNW 06:33:22 10° SW visible
22 Nov 6.8 17:03:27 10° S 17:07:06 78° WSW 17:10:50 10° NNW visible
23 Nov 6.5 06:00:56 10° N 06:04:38 82° WNW 06:08:16 10° SSW visible
23 Nov 10.1 18:13:50 10° WSW 18:15:27 12° W 18:17:05 10° WNW visible
24 Nov 7.7 05:35:38 10° NNE 05:39:13 47° E 05:42:42 10° S visible
24 Nov 9.3 17:46:49 10° SSW 17:49:50 24° W 17:52:53 10° NW visible
25 Nov 9.1 05:10:40 10° NE 05:13:41 24° E 05:16:39 10° SSE visible
25 Nov 7.8 17:20:46 10° S 17:24:19 47° W 17:27:56 10° NNW visible
26 Nov 10.1 04:46:30 10° ENE 04:48:04 12° E 04:49:37 10° ESE visible
26 Nov 6.8 06:18:12 10° N 06:21:46 49° WNW 06:25:15 10° SSW visible
26 Nov 6.6 16:55:12 10° SSE 16:58:53 83° E 17:02:38 10° N visible
27 Nov 6.7 05:52:42 10° NNE 05:56:24 79° ESE 05:59:59 10° S visible
27 Nov 9.9 18:04:52 10° SW 18:07:08 15° W 18:09:24 10° NW visible
28 Nov 8.2 05:27:30 10° NNE 05:30:56 37° E 05:34:17 10° SSE visible
28 Nov 8.9 17:38:17 10° SSW 17:41:32 29° W 17:44:50 10° NNW visible
29 Nov 9.5 05:02:42 10° NE 05:05:21 19° E 05:07:59 10° SE visible
29 Nov 7.4 06:35:35 10° N 06:38:49 30° WNW 06:41:59 10° SW visible
29 Nov 7.3 17:12:23 10° S 17:16:02 59° W 17:19:44 10° NNW visible
30 Nov 6.5 06:09:53 10° N 06:13:31 62° WNW 06:17:02 10° SSW visible
30 Nov 6.6 16:46:58 10° SSE 16:50:37 66° ENE 16:54:20 10° N visible
01 Dec 7.1 05:44:29 10° NNE 05:48:06 62° E 05:51:37 10° S visible
01 Dec 9.6 17:56:05 10° SW 17:58:46 19° W 18:01:29 10° NW visible
